EN

Hourly Weather Dziadki

Today, 26 October, Monday

Time Temperature Precipitation Wind Pressure Humidity
00:00 +9°C° 0 mm 3 mps 749 mmHg 92%
01:00 +9°C° 0 mm 3 mps 749 mmHg 91%
02:00 +8°C° 0 mm 4 mps 748 mmHg 91%
03:00 +8°C° 0 mm 4 mps 748 mmHg 91%
04:00 +8°C° 0 mm 4 mps 748 mmHg 90%
05:00 +8°C° 0 mm 4 mps 747 mmHg 91%
06:00 +8°C° 0 mm 4 mps 747 mmHg 92%
07:00 +10°C° 0 mm 4 mps 747 mmHg 92%
08:00 +11°C° 0 mm 4 mps 747 mmHg 90%
09:00 +12°C° 0 mm 5 mps 747 mmHg 88%
10:00 +12°C° 0 mm 5 mps 747 mmHg 86%
11:00 +13°C° 0 mm 5 mps 746 mmHg 85%
12:00 +13°C° 0 mm 5 mps 746 mmHg 83%
13:00 +14°C° 0 mm 4 mps 746 mmHg 81%
14:00 +14°C° 0 mm 4 mps 746 mmHg 82%
15:00 +14°C° 0 mm 4 mps 746 mmHg 82%
16:00 +13°C° 0 mm 3 mps 745 mmHg 83%
17:00 +14°C° 0.1 mm 4 mps 745 mmHg 82%
18:00 +14°C° 0.1 mm 4 mps 746 mmHg 82%
19:00 +14°C° 0.1 mm 4 mps 746 mmHg 81%
20:00 +13°C° 0 mm 4 mps 746 mmHg 82%
21:00 +13°C° 0 mm 4 mps 745 mmHg 84%
22:00 +12°C° 0 mm 4 mps 745 mmHg 85%
23:00 +12°C° 0 mm 4 mps 745 mmHg 87%

Tomorrow, 27 October, Tuesday

Time Temperature Precipitation Wind Pressure Humidity
00:00 +12°C° 0 mm 4 mps 745 mmHg 89%
01:00 +11°C° 0 mm 4 mps 745 mmHg 90%
02:00 +11°C° 0 mm 3 mps 745 mmHg 91%
03:00 +11°C° 0 mm 3 mps 745 mmHg 91%
04:00 +12°C° 0 mm 3 mps 745 mmHg 91%
05:00 +11°C° 0 mm 3 mps 746 mmHg 92%
06:00 +11°C° 0 mm 3 mps 746 mmHg 93%
07:00 +11°C° 0 mm 3 mps 746 mmHg 94%
08:00 +12°C° 0 mm 2 mps 746 mmHg 93%
09:00 +13°C° 0 mm 2 mps 747 mmHg 91%
10:00 +13°C° 0 mm 2 mps 747 mmHg 89%
11:00 +14°C° 0 mm 3 mps 747 mmHg 81%
12:00 +17°C° 0 mm 3 mps 747 mmHg 73%
13:00 +18°C° 0 mm 4 mps 747 mmHg 64%
14:00 +17°C° 0 mm 4 mps 747 mmHg 69%
15:00 +16°C° 0 mm 3 mps 746 mmHg 74%
16:00 +14°C° 0 mm 3 mps 746 mmHg 78%
17:00 +14°C° 0 mm 4 mps 746 mmHg 79%
18:00 +14°C° 0 mm 4 mps 746 mmHg 80%
19:00 +14°C° 0 mm 5 mps 747 mmHg 82%
20:00 +14°C° 0 mm 5 mps 747 mmHg 81%
21:00 +13°C° 0 mm 4 mps 747 mmHg 81%
22:00 +13°C° 0 mm 4 mps 747 mmHg 80%
23:00 +13°C° 0 mm 4 mps 747 mmHg 84%

Day after tomorrow, 28 October, Wednesday

Time Temperature Precipitation Wind Pressure Humidity
00:00 +12°C° 0 mm 3 mps 747 mmHg 87%
01:00 +13°C° 0 mm 2 mps 748 mmHg 90%
02:00 +12°C° 0 mm 2 mps 748 mmHg 92%
03:00 +12°C° 0 mm 2 mps 748 mmHg 94%
04:00 +10°C° 0 mm 2 mps 748 mmHg 96%
05:00 +11°C° 0 mm 1 mps 749 mmHg 95%
06:00 +11°C° 0 mm 1 mps 749 mmHg 94%
07:00 +10°C° 0 mm 1 mps 749 mmHg 93%
08:00 +11°C° 0 mm 1 mps 750 mmHg 88%
09:00 +12°C° 0 mm 1 mps 750 mmHg 83%
10:00 +13°C° 0 mm 1 mps 750 mmHg 78%
11:00 +13°C° 0 mm 2 mps 750 mmHg 76%
12:00 +14°C° 0 mm 2 mps 750 mmHg 73%
13:00 +15°C° 0 mm 2 mps 750 mmHg 70%
14:00 +14°C° 0 mm 2 mps 750 mmHg 74%
15:00 +13°C° 0 mm 2 mps 750 mmHg 77%
16:00 +12°C° 0 mm 2 mps 750 mmHg 81%
17:00 +12°C° 0 mm 2 mps 749 mmHg 84%
18:00 +10°C° 0 mm 2 mps 749 mmHg 87%
19:00 +10°C° 0 mm 2 mps 749 mmHg 90%
20:00 +10°C° 0 mm 2 mps 750 mmHg 90%
21:00 +10°C° 0 mm 2 mps 750 mmHg 91%
22:00 +10°C° 0 mm 2 mps 750 mmHg 91%
23:00 +10°C° 0 mm 2 mps 750 mmHg 91%

29 October, Thursday

Time Temperature Precipitation Wind Pressure Humidity
00:00 +10°C° 0 mm 2 mps 749 mmHg 92%
01:00 +10°C° 0 mm 2 mps 749 mmHg 92%
02:00 +10°C° 0 mm 2 mps 749 mmHg 93%
03:00 +9°C° 0 mm 2 mps 749 mmHg 93%
04:00 +9°C° 0 mm 2 mps 749 mmHg 94%
05:00 +8°C° 0 mm 2 mps 749 mmHg 93%
06:00 +8°C° 0 mm 2 mps 749 mmHg 93%
07:00 +8°C° 0 mm 3 mps 749 mmHg 92%
08:00 +9°C° 0 mm 3 mps 749 mmHg 84%
09:00 +10°C° 0 mm 4 mps 750 mmHg 77%
10:00 +12°C° 0 mm 4 mps 750 mmHg 70%
11:00 +12°C° 0 mm 4 mps 750 mmHg 68%
12:00 +13°C° 0 mm 5 mps 750 mmHg 66%
13:00 +13°C° 0 mm 5 mps 749 mmHg 64%
14:00 +13°C° 0 mm 4 mps 750 mmHg 67%
15:00 +12°C° 0 mm 4 mps 750 mmHg 69%
16:00 +12°C° 0 mm 3 mps 750 mmHg 72%
17:00 +11°C° 0.1 mm 3 mps 750 mmHg 76%
18:00 +10°C° 0.1 mm 3 mps 751 mmHg 80%
19:00 +9°C° 0.1 mm 3 mps 751 mmHg 84%
20:00 +9°C° 0 mm 3 mps 751 mmHg 85%
21:00 +8°C° 0 mm 3 mps 752 mmHg 87%
22:00 +8°C° 0 mm 3 mps 752 mmHg 89%
23:00 +8°C° 0 mm 3 mps 752 mmHg 89%

30 October, Friday

Time Temperature Precipitation Wind Pressure Humidity
00:00 +7°C° 0 mm 3 mps 752 mmHg 89%
01:00 +7°C° 0 mm 3 mps 752 mmHg 89%
02:00 +7°C° 0 mm 3 mps 752 mmHg 90%
03:00 +7°C° 0 mm 3 mps 752 mmHg 90%
04:00 +7°C° 0 mm 3 mps 752 mmHg 91%
05:00 +7°C° 0 mm 3 mps 752 mmHg 89%
06:00 +6°C° 0 mm 4 mps 752 mmHg 87%
07:00 +7°C° 0 mm 4 mps 752 mmHg 85%
08:00 +7°C° 0 mm 5 mps 752 mmHg 83%
09:00 +8°C° 0 mm 5 mps 752 mmHg 81%
10:00 +9°C° 0 mm 5 mps 752 mmHg 79%
11:00 +9°C° 0 mm 5 mps 752 mmHg 79%
12:00 +10°C° 0 mm 5 mps 752 mmHg 79%
13:00 +10°C° 0 mm 5 mps 752 mmHg 80%
14:00 +10°C° 0 mm 5 mps 752 mmHg 81%
15:00 +11°C° 0 mm 4 mps 752 mmHg 83%
16:00 +11°C° 0 mm 4 mps 752 mmHg 84%
17:00 +11°C° 0 mm 4 mps 752 mmHg 84%
18:00 +11°C° 0 mm 4 mps 753 mmHg 84%
19:00 +11°C° 0 mm 4 mps 753 mmHg 85%
20:00 +11°C° 0 mm 4 mps 753 mmHg 86%
21:00 +11°C° 0 mm 4 mps 753 mmHg 87%
22:00 +11°C° 0 mm 4 mps 753 mmHg 88%
23:00 +11°C° 0 mm 4 mps 753 mmHg 88%

31 October, Saturday

Time Temperature Precipitation Wind Pressure Humidity
00:00 +11°C° 0 mm 4 mps 753 mmHg 88%
01:00 +11°C° 0 mm 4 mps 753 mmHg 88%
02:00 +10°C° 0 mm 3 mps 753 mmHg 90%
03:00 +10°C° 0 mm 3 mps 753 mmHg 92%
04:00 +9°C° 0 mm 3 mps 753 mmHg 94%
05:00 +9°C° 0 mm 3 mps 753 mmHg 94%
06:00 +9°C° 0 mm 2 mps 754 mmHg 95%
07:00 +8°C° 0 mm 2 mps 754 mmHg 95%
Show more